CUSAT 1

Last updated on Dec. 13, 2018, 12:09 a.m. UTC

1 39266U 13055B   18346.52449043  .00002617  00000-0  69811-4 0  9998
2 39266  80.9831 160.0972 0644253  75.4281 291.7421 14.33724201269733
UTC
Height (km)
Latitude
Longitude
Inclination
Orbital Period
UTC large
Height (km)
Speed (km/s)
/
Latitude / Longitude
Inclination (degrees)
Orbital Period (minutes)
Azimuth
Elevation
Range (km)
Doppler Factor
iOS Compass Heading
iOS Angle